Location: Gro� Glienicke
(52.4675°N, 13.1079°E)
Time: 17:33:52
(UTC+00:00)

Cosmos 2237 Rocket - Pass Details

Date: 06 July 2020
Orbit: 835 x 850 km, 71.0° (Epoch: 13 August)

Event Time Altitude Azimuth Distance (km) Brightness Sun altitude
Exits shadow 20:17:25 - 144° (SE) 2,737 4.2 -5.8°
Reaches altitude 10° 20:18:29 10° 136° (SE) 2,473 3.9 -5.9°
Maximum altitude 20:21:58 17° 98° (E) 2,033 3.8 -6.3°
Drops below altitude 10° 20:25:27 10° 60° (ENE) 2,486 4.6 -6.6°
Sets 20:28:45 0° 41° (NE) 3,427 5.5 -6.9°
